Waarnemingen

Advertentie
Mijn weer
Bournemouth Airport, Groot Brittannië (3862): temperatuur & dauwpunt: 17.09.2019 16:00:00 - 23.09.2019 16:00:00 (BST)Bournemouth Airport, Groot Brittannië (3862): temperatuur -20cm & temperatuur -100cm: 17.09.2019 16:00:00 - 23.09.2019 16:00:00 (BST)Bournemouth Airport, Groot Brittannië (3862): windsnelheid & windstoten: 17.09.2019 16:00:00 - 23.09.2019 16:00:00 (BST)Bournemouth Airport, Groot Brittannië (3862): windrichting: 17.09.2019 16:00:00 - 23.09.2019 16:00:00 (BST)Bournemouth Airport, Groot Brittannië (3862): luchtdruk: 17.09.2019 16:00:00 - 23.09.2019 16:00:00 (BST)Bournemouth Airport, Groot Brittannië (3862): zicht: 17.09.2019 16:00:00 - 23.09.2019 16:00:00 (BST)Bournemouth Airport, Groot Brittannië (3862): Zonneschijnduur: 17.09.2019 16:00:00 - 23.09.2019 16:00:00 (BST)Bournemouth Airport, Groot Brittannië (3862): neerslag: 17.09.2019 16:00:00 - 23.09.2019 16:00:00 (BST)
Datum & Tijd tt [°C] td [°C] tt -20cm [°C] tt -100cm [°C] ff [km/u] ff [kn] fx [km/u] fx [kn] dd ppp [hPa] vv [km] sd [min] rr [mm]
23.09.2019 16:00:00 16,1 15,1 - - 29 16 - - Z 1009,0 5 0 1,4
23.09.2019 15:00:00 15,8 14,2 - - 22 12 46 25 Z 1009,9 7 0 1,8
23.09.2019 14:00:00 16,4 14,8 - - 24 13 - - Z 1010,3 7 0 0,4
23.09.2019 13:00:00 17,7 13,9 - - 24 13 - - Z 1010,6 30 6 0,0
23.09.2019 12:00:00 17,7 14,4 - - 18 10 - - Z 1010,9 10 18 0,4
23.09.2019 11:00:00 17,8 12,7 - - 24 13 - - ZZW 1011,3 10 30 0,0
23.09.2019 10:00:00 17,8 13,6 16,7 15,7 18 10 - - ZZW 1011,4 35 42 0,0
23.09.2019 09:00:00 15,4 12,9 - - 8 4 - - ZW 1011,3 10 0 0,0
23.09.2019 08:00:00 12,9 12,8 - - 5 3 - - ZZO 1010,9 30 0 0,0
23.09.2019 07:00:00 9,1 8,2 - - 4 2 - - - 1010,7 10 0 0,0
23.09.2019 06:00:00 11,5 10,5 - - 4 2 - - WZW 1010,6 24 0 0,0
23.09.2019 05:00:00 11,9 11,0 - - 9 5 - - ZW 1010,0 30 0 0,0
23.09.2019 04:00:00 12,5 10,9 - - 9 5 - - WZW 1009,7 30 0 0,0
23.09.2019 03:00:00 13,3 12,2 - - 9 5 - - W 1009,1 30 0 0,0
23.09.2019 02:00:00 14,4 13,0 - - 16 9 - - W 1008,6 35 0 0,0
23.09.2019 01:00:00 14,5 13,4 - - 13 7 - - W 1007,7 35 - 0,0
23.09.2019 00:00:00 14,9 13,8 - - 13 7 - - W 1007,2 30 0 0,0
22.09.2019 23:00:00 14,6 13,6 - - 8 4 - - WZW 1006,3 10 0 0,0
22.09.2019 22:00:00 15,7 14,0 - - 9 5 - - ZW 1005,7 10 0 0,0
22.09.2019 21:00:00 15,7 13,2 - - 13 7 - - ZZW 1005,2 30 0 0,2
22.09.2019 20:00:00 15,4 13,2 - - 13 7 - - ZZW 1005,0 35 0 0,0
22.09.2019 19:00:00 16,7 13,1 - - 15 8 - - ZW 1004,7 10 18 0,0
22.09.2019 18:00:00 17,2 13,4 - - 16 9 - - ZZW 1004,3 10 12 0,0
22.09.2019 17:00:00 18,1 12,9 - - 24 13 - - ZZW 1004,1 10 42 0,0
22.09.2019 16:00:00 17,6 14,1 - - 26 14 - - ZZW 1003,9 10 6 0,0
22.09.2019 15:00:00 18,4 15,5 - - 22 12 - - Z 1003,7 10 6 0,0
22.09.2019 14:00:00 18,1 15,1 - - 21 11 - - ZZW 1003,8 35 6 0,0
22.09.2019 13:00:00 17,6 16,0 - - 15 8 - - Z 1003,5 10 0 0,2
22.09.2019 12:00:00 16,8 16,0 - - 16 9 - - ZZW 1003,4 8 0 1,0
22.09.2019 11:00:00 16,8 16,3 - - 11 6 - - Z 1003,1 8 0 1,6
22.09.2019 10:00:00 16,1 15,5 16,9 15,7 5 3 - - - 1002,9 6 0 3,8
22.09.2019 09:00:00 15,9 15,1 - - 5 3 - - W 1003,0 5 0 4,4
22.09.2019 08:00:00 17,4 15,3 - - 8 4 - - W 1002,2 10 0 0,0
22.09.2019 07:00:00 18,3 16,3 - - 9 5 - - - 1002,0 10 0 0,0
22.09.2019 06:00:00 18,8 16,5 - - 11 6 - - Z 1001,9 10 0 0,0
22.09.2019 05:00:00 19,1 17,0 - - 11 6 - - ZZO 1002,1 18 0 0,0
22.09.2019 04:00:00 18,4 17,1 - - 8 4 - - OZO 1002,6 10 0 0,0
22.09.2019 03:00:00 18,6 17,2 - - 11 6 - - ZO 1003,3 10 0 1,6
22.09.2019 02:00:00 18,8 16,4 - - 8 4 - - ZO 1004,0 8 0 0,6
22.09.2019 01:00:00 17,8 15,4 - - 5 3 - - O 1004,0 27 - 0,0
22.09.2019 00:00:00 17,6 15,1 - - 8 4 - - O 1004,6 10 0 0,0
21.09.2019 23:00:00 17,3 14,3 - - 4 2 - - O 1005,3 30 0 0,0
21.09.2019 22:00:00 18,8 14,3 - - 8 4 - - O 1005,9 10 0 0,0
21.09.2019 21:00:00 17,6 13,4 - - 8 4 - - ONO 1006,3 30 0 0,0
21.09.2019 20:00:00 18,3 13,4 - - 15 8 - - O 1006,6 10 0 0,0
21.09.2019 19:00:00 19,0 13,0 - - 8 4 - - O 1006,8 10 0 0,0
21.09.2019 18:00:00 20,1 13,2 - - 15 8 - - OZO 1007,3 10 12 0,0
21.09.2019 17:00:00 21,7 13,5 - - 21 11 - - OZO 1007,7 35 60 0,0
21.09.2019 16:00:00 22,6 13,7 - - 21 11 - - OZO 1008,2 10 60 0,0
21.09.2019 15:00:00 23,1 13,5 - - 18 10 - - OZO 1008,8 10 60 0,0
21.09.2019 14:00:00 22,5 12,6 - - 21 11 - - OZO 1009,4 10 60 0,0
21.09.2019 13:00:00 22,0 12,5 - - 22 12 - - OZO 1010,0 10 60 0,0
21.09.2019 12:00:00 21,6 11,8 - - 22 12 - - OZO 1010,5 10 60 0,0
21.09.2019 11:00:00 20,5 11,7 - - 21 11 - - OZO 1011,3 10 60 0,0
21.09.2019 10:00:00 19,3 12,2 16,2 15,7 22 12 - - OZO 1011,5 10 60 0,0
21.09.2019 09:00:00 17,9 12,2 - - 18 10 - - OZO 1012,2 10 54 0,0
21.09.2019 08:00:00 15,2 11,8 - - 13 7 - - O 1012,3 30 0 0,0
21.09.2019 07:00:00 13,3 10,8 - - 13 7 - - O 1012,4 10 0 0,0
21.09.2019 06:00:00 13,9 10,4 - - 13 7 - - O 1012,8 10 0 0,0
21.09.2019 05:00:00 11,4 9,0 - - 9 5 - - ONO 1013,2 30 0 0,0
21.09.2019 04:00:00 12,5 10,9 - - 13 7 - - O 1013,7 30 0 0,0
21.09.2019 03:00:00 12,9 10,1 - - 15 8 - - O 1014,3 30 0 0,0
21.09.2019 02:00:00 12,5 10,1 - - 13 7 - - O 1015,2 30 0 0,0
21.09.2019 01:00:00 12,2 9,4 - - 13 7 - - O 1015,9 30 - 0,0
21.09.2019 00:00:00 14,9 10,3 - - 18 10 - - O 1016,6 30 0 0,0
20.09.2019 23:00:00 13,4 7,7 - - 15 8 - - O 1017,2 10 0 0,0
20.09.2019 22:00:00 15,2 6,3 - - 15 8 - - O 1017,6 10 0 0,0
20.09.2019 21:00:00 16,7 5,3 - - 16 9 - - O 1018,0 10 0 0,0
20.09.2019 20:00:00 17,6 5,8 - - 16 9 - - O 1018,4 10 6 0,0
20.09.2019 19:00:00 18,8 3,5 - - 28 15 - - O 1018,6 10 60 0,0
20.09.2019 18:00:00 19,6 2,6 - - 28 15 52 28 OZO 1019,2 60 60 0,0
20.09.2019 17:00:00 20,0 1,4 - - 28 15 50 27 OZO 1019,8 60 60 0,0
20.09.2019 16:00:00 20,4 1,2 - - 28 15 46 25 O 1021,0 10 60 0,0
20.09.2019 15:00:00 20,1 3,7 - - 34 18 - - O 1021,7 10 60 0,0
20.09.2019 14:00:00 19,8 6,8 - - 26 14 - - OZO 1023,0 10 60 0,0
20.09.2019 13:00:00 19,5 6,2 - - 29 16 46 25 O 1023,9 10 60 0,0
20.09.2019 12:00:00 18,8 6,9 - - 29 16 - - OZO 1024,4 10 60 0,0
20.09.2019 11:00:00 18,3 8,7 - - 29 16 - - OZO 1025,0 10 60 0,0
20.09.2019 10:00:00 16,6 11,4 16,2 15,7 16 9 - - O 1025,6 35 60 0,0
20.09.2019 09:00:00 13,7 11,0 - - 16 9 - - ONO 1026,0 10 54 0,0
20.09.2019 08:00:00 10,9 10,3 - - 11 6 - - ONO 1026,1 10 0 0,0
20.09.2019 07:00:00 9,6 8,8 - - 9 5 - - ONO 1026,4 10 0 0,0
20.09.2019 06:00:00 9,7 8,7 - - 11 6 - - ONO 1026,5 10 0 0,0
20.09.2019 05:00:00 10,2 9,1 - - 9 5 - - ONO 1027,2 30 0 0,0
20.09.2019 04:00:00 10,7 9,7 - - 13 7 - - ONO 1027,5 30 0 0,0
20.09.2019 03:00:00 10,5 9,1 - - 13 7 - - ONO 1028,0 27 0 0,0
20.09.2019 02:00:00 10,6 9,4 - - 13 7 - - ONO 1028,4 30 0 0,0
20.09.2019 01:00:00 10,4 9,8 - - 11 6 - - ONO 1028,7 22 - 0,0
20.09.2019 00:00:00 9,8 9,1 - - 9 5 - - ONO 1029,2 20 0 0,0
19.09.2019 23:00:00 9,6 8,6 - - 5 3 - - NO 1029,5 25 0 0,0
19.09.2019 22:00:00 10,3 8,8 - - 8 4 - - ONO 1029,5 10 0 0,0
19.09.2019 21:00:00 11,7 9,9 - - 8 4 - - ONO 1029,4 10 0 0,0
19.09.2019 20:00:00 13,4 9,5 - - 9 5 - - O 1029,3 35 0 0,0
19.09.2019 19:00:00 17,1 11,5 - - 5 3 - - ZZO 1029,2 35 54 0,0
19.09.2019 18:00:00 17,9 11,4 - - 11 6 - - ZZO 1029,3 10 60 0,0
19.09.2019 17:00:00 18,4 10,6 - - 13 7 - - Z 1029,4 50 60 0,0
19.09.2019 16:00:00 19,0 10,3 - - 15 8 - - ZZO 1029,6 45 60 0,0
19.09.2019 15:00:00 19,5 10,4 - - 16 9 - - ZZO 1030,1 10 60 0,0
19.09.2019 14:00:00 20,4 9,0 - - 11 6 - - OZO 1030,5 50 60 0,0
19.09.2019 13:00:00 19,4 8,5 - - 9 5 - - ZO 1031,2 10 60 0,0
19.09.2019 12:00:00 18,8 9,0 - - 11 6 - - O 1031,3 10 60 0,0
19.09.2019 11:00:00 17,8 8,0 - - 13 7 - - O 1031,6 10 60 0,0
19.09.2019 10:00:00 15,4 9,9 16,4 15,9 8 4 - - NO 1031,8 10 60 0,0
19.09.2019 09:00:00 12,1 9,6 - - 4 2 - - N 1031,6 10 54 0,0
19.09.2019 08:00:00 6,7 6,0 - - 4 2 - - N 1031,1 10 0 0,0
19.09.2019 07:00:00 4,9 4,1 - - 4 2 - - NW 1030,8 10 0 0,0
19.09.2019 06:00:00 4,9 4,0 - - 4 2 - - NW 1030,6 24 0 0,0
19.09.2019 05:00:00 6,0 5,2 - - 2 1 - - NW 1030,4 25 0 0,0
19.09.2019 04:00:00 5,5 4,4 - - 4 2 - - W 1030,6 19 0 0,0
19.09.2019 03:00:00 7,0 5,7 - - 4 2 - - N 1030,5 30 0 0,0
19.09.2019 02:00:00 7,1 5,5 - - 4 2 - - NNW 1030,6 35 0 0,0
19.09.2019 01:00:00 7,2 5,0 - - 4 2 - - N 1030,5 30 - 0,0
19.09.2019 00:00:00 7,8 5,4 - - 4 2 - - N 1030,3 35 0 0,0
18.09.2019 23:00:00 8,4 5,9 - - 5 3 - - NNW 1030,1 30 0 0,0
18.09.2019 22:00:00 9,6 6,5 - - 4 2 - - NNW 1029,9 10 0 0,0
18.09.2019 21:00:00 11,5 7,3 - - 4 2 - - N 1029,5 10 0 0,0
18.09.2019 20:00:00 14,4 7,1 - - 5 3 - - NO 1029,0 10 6 0,0
18.09.2019 19:00:00 16,7 6,4 - - 9 5 - - NO 1028,5 50 60 0,0
18.09.2019 18:00:00 19,0 6,1 - - 13 7 - - NO 1028,4 10 60 0,0
18.09.2019 17:00:00 19,6 5,2 - - 16 9 - - NO 1028,4 55 60 0,0
18.09.2019 16:00:00 19,6 5,2 - - 13 7 - - ONO 1028,7 10 60 0,0
18.09.2019 15:00:00 19,4 5,7 - - 15 8 - - ONO 1029,0 10 60 0,0
18.09.2019 14:00:00 19,3 6,1 - - 15 8 - - ONO 1029,3 50 60 0,0
18.09.2019 13:00:00 18,6 5,8 - - 18 10 - - ONO 1029,6 10 60 0,0
18.09.2019 12:00:00 17,8 4,9 - - 16 9 - - O 1029,9 10 60 0,0
18.09.2019 11:00:00 16,3 5,4 - - 15 8 - - NO 1030,1 55 60 0,0
18.09.2019 10:00:00 13,8 7,4 16,7 16,0 13 7 - - NO 1030,1 10 60 0,0
18.09.2019 09:00:00 11,1 7,0 - - 11 6 - - NO 1029,7 10 54 0,0
18.09.2019 08:00:00 7,4 6,2 - - 8 4 - - N 1029,6 28 0 0,0
18.09.2019 07:00:00 6,3 4,8 - - 5 3 - - N 1029,1 10 0 0,0
18.09.2019 06:00:00 6,8 5,2 - - 8 4 - - N 1028,9 10 0 0,0
18.09.2019 05:00:00 6,5 4,3 - - 4 2 - - NNO 1028,3 35 0 0,0
18.09.2019 04:00:00 8,7 6,2 - - 5 3 - - NO 1028,3 40 0 0,0
18.09.2019 03:00:00 7,5 4,3 - - 4 2 - - NNW 1028,2 35 0 0,0
18.09.2019 02:00:00 9,0 6,6 - - 11 6 - - ONO 1028,1 45 0 0,0
18.09.2019 01:00:00 9,5 6,6 - - 9 5 - - NO 1027,8 45 - 0,0
18.09.2019 00:00:00 11,0 7,2 - - 5 3 - - ONO 1027,3 50 0 0,0
17.09.2019 23:00:00 11,9 7,0 - - 5 3 - - ONO 1027,3 50 0 0,0
17.09.2019 22:00:00 11,3 6,5 - - 8 4 - - NNO 1026,6 10 0 0,0
17.09.2019 21:00:00 12,8 6,4 - - 9 5 - - NNO 1026,0 10 0 0,0
17.09.2019 20:00:00 13,8 6,5 - - 9 5 - - NNO 1025,6 10 6 0,0
17.09.2019 19:00:00 17,1 7,0 - - 13 7 - - NO 1025,3 10 60 0,0
17.09.2019 18:00:00 19,0 7,0 - - 16 9 - - NO 1024,7 10 60 0,0
17.09.2019 17:00:00 19,9 6,9 - - 18 10 - - NO 1024,6 10 60 0,0
17.09.2019 16:00:00 20,1 7,5 - - 16 9 - - NNO 1024,9 10 60 0,0

tt = temperatuur
td = dauwpunt
tt -20cm = temperatuur -20cm
tt -100cm = temperatuur -100cm
ff = windsnelheid
fx = windstoten
dd = windrichting
ppp = luchtdruk
vv = zicht
sd = Zonneschijnduur
rr = neerslag

Weerstations in de omgeving